QPF
0.04 0.05 0.05 0.05 0.05 0.05 0.04 0.03 0.04 0.05 0.06 0.05 0.04 0.04 0.05 0.05 0.04 0.04 0.06 0.07 0.07 0.08 0.08 0.07 0.06 0.05 0.06 0.06 0.06 0.05 0.05 0.06 0.06 0.07 0.08 0.06 0.05 0.05 0.06 0.05 0.04 0.02 0.03
0.02 0.04 0.04 0.03 0.03 0.03 0.02 0.02 0.03 0.04 0.05 0.04 0.04 0.03 0.04 0.06 0.06 0.05 0.06 0.07 0.08 0.08 0.09 0.08 0.07 0.07 0.06 0.07 0.08 0.05 0.04 0.05 0.06 0.08 0.07 0.05 0.04 0.04 0.04 0.04 0.03 0.03 0.03
0.02 0.03 0.02 0.01 0.02 0.01 0.02 0.02 0.01 0.02 0.03 0.03 0.03 0.03 0.04 0.05 0.05 0.04 0.05 0.07 0.07 0.08 0.08 0.07 0.06 0.09 0.12 0.08 0.07 0.07 0.06 0.06 0.07 0.06 0.05 0.04 0.04 0.04 0.03 0.03 0.03 0.02 0.02
0.01 0.01 0.01 0.01 0.01 0.01 0.02 0.02 0.02 0.03 0.04 0.03 0.03 0.03 0.03 0.04 0.04 0.04 0.05 0.07 0.08 0.07 0.06 0.05 0.05 0.06 0.09 0.08 0.08 0.08 0.06 0.05 0.04 0.03 0.02 0.02 0.01 0.01 0.02 0.02 0.02 0.02 0.02
0.01 0.01 0.01 0.01 0.00 0.01 0.02 0.03 0.03 0.03 0.04 0.03 0.04 0.03 0.02 0.02 0.03 0.03 0.04 0.06 0.06 0.05 0.04 0.04 0.06 0.06 0.06 0.07 0.09 0.08 0.07 0.04 0.03 0.03 0.02 0.02 0.02 0.03 0.03 0.01 0.01 0.01 0.01
0.01 0.01 0.01 0.01 0.00 0.01 0.02 0.02 0.02 0.03 0.03 0.03 0.04 0.03 0.02 0.02 0.02 0.03 0.04 0.04 0.03 0.03 0.05 0.05 0.06 0.06 0.06 0.07 0.07 0.06 0.05 0.04 0.04 0.02 0.01 0.02 0.02 0.03 0.03 0.01 0.01 0.01 0.02
0.00 0.00 0.01 0.01 0.01 0.02 0.02 0.01 0.02 0.03 0.02 0.02 0.03 0.02 0.02 0.01 0.01 0.02 0.02 0.03 0.03 0.05 0.05 0.06 0.06 0.06 0.06 0.06 0.06 0.05 0.03 0.03 0.03 0.02 0.02 0.02 0.02 0.03 0.02 0.01 0.01 0.02 0.02
0.00 0.00 0.01 0.02 0.02 0.03 0.02 0.01 0.02 0.03 0.02 0.02 0.02 0.03 0.03 0.02 0.02 0.02 0.02 0.04 0.05 0.05 0.06 0.05 0.05 0.04 0.03 0.03 0.03 0.02 0.02 0.02 0.02 0.02 0.03 0.02 0.02 0.02 0.01 0.01 0.01 0.02 0.02
0.01 0.01 0.01 0.02 0.01 0.02 0.02 0.01 0.02 0.04 0.03 0.02 0.02 0.03 0.04 0.05 0.05 0.04 0.03 0.04 0.04 0.04 0.05 0.04 0.03 0.02 0.02 0.02 0.02 0.01 0.01 0.01 0.02 0.02 0.03 0.02 0.02 0.01 0.01 0.01 0.01 0.02 0.01
0.01 0.01 0.02 0.02 0.01 0.01 0.01 0.01 0.01 0.02 0.04 0.03 0.02 0.02 0.03 0.04 0.04 0.05 0.04 0.04 0.03 0.03 0.03 0.03 0.03 0.02 0.01 0.01 0.01 0.01 0.01 0.01 0.02 0.03 0.03 0.03 0.02 0.01 0.01 0.01 0.01 0.02 0.02
0.01 0.00 0.01 0.01 0.01 0.01 0.01 0.01 0.01 0.01 0.03 0.03 0.03 0.03 0.04 0.03 0.03 0.05 0.06 0.05 0.04 0.03 0.03 0.03 0.03 0.03 0.02 0.02 0.02 0.01 0.00 0.01 0.01 0.02 0.03 0.04 0.03 0.02 0.01 0.01 0.02 0.02 0.03
0.01 0.00 0.00 0.01 0.01 0.00 0.01 0.02 0.01 0.01 0.01 0.02 0.02 0.04 0.04 0.03 0.03 0.03 0.03 0.03 0.04 0.03 0.03 0.03 0.02 0.03 0.03 0.02 0.01 0.00 0.00 0.01 0.01 0.01 0.01 0.02 0.02 0.02 0.02 0.03 0.03 0.03 0.04
0.02 0.01 0.01 0.01 0.01 0.01 0.01 0.01 0.01 0.01 0.00 0.01 0.02 0.02 0.03 0.03 0.03 0.04 0.03 0.02 0.02 0.03 0.03 0.03 0.03 0.02 0.02 0.02 0.02 0.00 0.00 0.01 0.00 0.00 0.01 0.01 0.01 0.01 0.03 0.03 0.04 0.07 0.08
0.01 0.01 0.00 0.00 0.00 0.01 0.01 0.01 0.01 0.01 0.00 0.01 0.01 0.01 0.02 0.02 0.03 0.03 0.03 0.03 0.03 0.03 0.03 0.03 0.02 0.02 0.01 0.01 0.01 0.01 0.01 0.02 0.01 0.01 0.01 0.01 0.01 0.01 0.02 0.03 0.06 0.11 0.07
0.00 0.00 0.00 0.00 0.00 0.00 0.00 0.01 0.01 0.01 0.00 0.01 0.01 0.01 0.02 0.02 0.03 0.04 0.04 0.04 0.04 0.03 0.03 0.03 0.03 0.02 0.01 0.01 0.02 0.01 0.01 0.01 0.02 0.02 0.02 0.02 0.03 0.04 0.04 0.06 0.08 0.08 0.03
0.00 0.00 0.00 0.00 0.00 0.00 0.00 0.00 0.01 0.01 0.00 0.01 0.01 0.01 0.02 0.02 0.03 0.04 0.04 0.04 0.04 0.03 0.03 0.03 0.03 0.02 0.01 0.01 0.01 0.01 0.01 0.01 0.01 0.01 0.01 0.02 0.03 0.05 0.04 0.04 0.04 0.03 0.02
0.00 0.00 0.00 0.01 0.01 0.01 0.01 0.00 0.01 0.01 0.01 0.01 0.01 0.01 0.01 0.01 0.02 0.03 0.03 0.04 0.03 0.03 0.03 0.02 0.03 0.02 0.02 0.01 0.01 0.01 0.01 0.01 0.01 0.01 0.01 0.01 0.01 0.01 0.01 0.01 0.01 0.01 0.02
0.00 0.00 0.00 0.01 0.00 0.00 0.01 0.01 0.01 0.01 0.01 0.01 0.02 0.01 0.01 0.02 0.01 0.01 0.03 0.03 0.02 0.02 0.03 0.02 0.03 0.02 0.02 0.02 0.01 0.01 0.01 0.01 0.00 0.01 0.01 0.00 0.00 0.00 0.00 0.00 0.00 0.00 0.01
0.01 0.00 0.00 0.00 0.00 0.00 0.01 0.01 0.01 0.00 0.01 0.01 0.01 0.01 0.01 0.01 0.01 0.01 0.01 0.01 0.01 0.01 0.02 0.02 0.02 0.01 0.01 0.01 0.01 0.01 0.01 0.00 0.00 0.00 0.00 0.00 0.00 0.00 0.00 0.00 0.00 0.00 0.01
0.01 0.01 0.01 0.00 0.00 0.00 0.00 0.01 0.01 0.01 0.01 0.00 0.00 0.01 0.01 0.00 0.00 0.01 0.01 0.01 0.01 0.01 0.01 0.01 0.01 0.01 0.01 0.00 0.00 0.00 0.00 0.00 0.00 0.00 0.00 0.00 0.00 0.00 0.00 0.00 0.01 0.01 0.01
0.01 0.01 0.01 0.01 0.00 0.00 0.00 0.01 0.01 0.01 0.01 0.00 0.01 0.01 0.00 0.01 0.01 0.01 0.01 0.01 0.00 0.01 0.01 0.00 0.00 0.00 0.00 0.00 0.00 0.00 0.00 0.00 0.00 0.00 0.00 0.00 0.00 0.01 0.01 0.01 0.00 0.00 0.00
0.00 0.00 0.00 0.01 0.01 0.01 0.02 0.03 0.02 0.01 0.01 0.01 0.01 0.01 0.01 0.01 0.01 0.01 0.01 0.01 0.01 0.00 0.00 0.00 0.01 0.01 0.00 0.00 0.00 0.00 0.00 0.00 0.00 0.00 0.01 0.00 0.00 0.00 0.01 0.01 0.00 0.00 0.00
0.01 0.01 0.01 0.01 0.01 0.01 0.02 0.01 0.01 0.01 0.01 0.01 0.01 0.01 0.02 0.02 0.01 0.01 0.01 0.01 0.01 0.00 0.00 0.00 0.00 0.00 0.00 0.00 0.00 0.01 0.01 0.00 0.00 0.00 0.00 0.00 0.00 0.00 0.00 0.00 0.00 0.00 0.00
0.02 0.02 0.01 0.00 0.01 0.01 0.01 0.00 0.01 0.01 0.02 0.01 0.01 0.02 0.02 0.02 0.02 0.02 0.01 0.01 0.01 0.01 0.01 0.01 0.01 0.00 0.00 0.00 0.00 0.00 0.00 0.00 0.00 0.00 0.00 0.00 0.00 0.00 0.00 0.00 0.00 0.00 0.00
0.02 0.02 0.01 0.01 0.01 0.01 0.00 0.00 0.01 0.01 0.02 0.02 0.01 0.02 0.02 0.02 0.02 0.01 0.01 0.01 0.01 0.01 0.01 0.02 0.01 0.01 0.01 0.01 0.01 0.01 0.01 0.01 0.01 0.01 0.01 0.01 0.01 0.01 0.00 0.00 0.00 0.00 0.00
0.01 0.01 0.01 0.01 0.00 0.00 0.01 0.01 0.01 0.01 0.02 0.02 0.02 0.02 0.03 0.02 0.03 0.02 0.02 0.02 0.02 0.03 0.03 0.03 0.02 0.02 0.02 0.02 0.02 0.02 0.01 0.01 0.01 0.01 0.01 0.00 0.00 0.00 0.00 0.00 0.00 0.00 0.00
MSLP
1017.99 1018.33 1018.59 1018.76 1018.85 1018.89 1018.93 1018.99 1019.10 1019.27 1019.49 1019.74 1020.01 1020.27 1020.51 1020.73 1020.93 1021.10 1021.24 1021.36 1021.44 1021.50 1021.53 1021.54 1021.55 1021.56 1021.59 1021.63 1021.68 1021.72 1021.74 1021.72 1021.66 1021.55 1021.41 1021.24 1021.07 1020.90 1020.74 1020.59 1020.42 1020.21 1019.97
1018.23 1018.56 1018.83 1019.04 1019.19 1019.30 1019.40 1019.50 1019.64 1019.81 1020.03 1020.26 1020.51 1020.76 1020.99 1021.21 1021.40 1021.56 1021.69 1021.80 1021.88 1021.94 1021.97 1022.00 1022.02 1022.05 1022.10 1022.15 1022.19 1022.23 1022.24 1022.21 1022.13 1022.03 1021.89 1021.75 1021.60 1021.46 1021.33 1021.19 1021.03 1020.82 1020.57
1018.50 1018.82 1019.11 1019.37 1019.59 1019.77 1019.94 1020.09 1020.26 1020.44 1020.64 1020.85 1021.06 1021.27 1021.47 1021.65 1021.81 1021.95 1022.07 1022.16 1022.23 1022.28 1022.33 1022.37 1022.42 1022.48 1022.55 1022.62 1022.68 1022.71 1022.71 1022.68 1022.60 1022.49 1022.36 1022.22 1022.10 1021.98 1021.87 1021.74 1021.59 1021.39 1021.14
1018.81 1019.10 1019.41 1019.72 1020.01 1020.27 1020.51 1020.73 1020.92 1021.11 1021.28 1021.45 1021.61 1021.77 1021.92 1022.05 1022.17 1022.27 1022.36 1022.43 1022.49 1022.54 1022.60 1022.66 1022.74 1022.84 1022.94 1023.04 1023.12 1023.16 1023.17 1023.13 1023.04 1022.92 1022.79 1022.65 1022.53 1022.42 1022.32 1022.21 1022.06 1021.87 1021.62
1019.13 1019.39 1019.71 1020.06 1020.41 1020.75 1021.06 1021.32 1021.55 1021.73 1021.88 1022.01 1022.12 1022.22 1022.31 1022.39 1022.47 1022.54 1022.59 1022.64 1022.69 1022.74 1022.80 1022.89 1023.00 1023.13 1023.27 1023.41 1023.51 1023.58 1023.59 1023.54 1023.45 1023.32 1023.17 1023.02 1022.89 1022.78 1022.67 1022.56 1022.42 1022.24 1022.01
1019.43 1019.67 1019.98 1020.36 1020.76 1021.15 1021.51 1021.81 1022.06 1022.24 1022.37 1022.46 1022.53 1022.58 1022.63 1022.67 1022.71 1022.75 1022.78 1022.81 1022.84 1022.89 1022.97 1023.07 1023.21 1023.38 1023.56 1023.73 1023.87 1023.96 1023.98 1023.93 1023.83 1023.68 1023.51 1023.34 1023.18 1023.05 1022.93 1022.81 1022.67 1022.50 1022.29
1019.73 1019.93 1020.23 1020.61 1021.03 1021.44 1021.83 1022.15 1022.40 1022.58 1022.69 1022.76 1022.80 1022.83 1022.86 1022.88 1022.90 1022.93 1022.94 1022.96 1022.98 1023.03 1023.11 1023.23 1023.40 1023.60 1023.82 1024.03 1024.20 1024.31 1024.34 1024.30 1024.18 1024.01 1023.81 1023.61 1023.43 1023.26 1023.12 1022.99 1022.85 1022.68 1022.48
1020.03 1020.19 1020.45 1020.80 1021.21 1021.61 1021.99 1022.31 1022.55 1022.72 1022.83 1022.89 1022.93 1022.97 1023.00 1023.03 1023.05 1023.08 1023.09 1023.11 1023.13 1023.17 1023.26 1023.39 1023.57 1023.80 1024.04 1024.28 1024.48 1024.62 1024.67 1024.63 1024.51 1024.32 1024.10 1023.87 1023.65 1023.46 1023.29 1023.13 1022.98 1022.82 1022.63
1020.36 1020.46 1020.67 1020.97 1021.32 1021.68 1022.02 1022.31 1022.53 1022.69 1022.80 1022.88 1022.94 1023.00 1023.06 1023.12 1023.17 1023.22 1023.24 1023.26 1023.28 1023.32 1023.40 1023.53 1023.72 1023.96 1024.22 1024.49 1024.72 1024.88 1024.95 1024.92 1024.81 1024.62 1024.38 1024.13 1023.89 1023.66 1023.47 1023.29 1023.12 1022.95 1022.77
1020.70 1020.76 1020.90 1021.13 1021.40 1021.70 1021.97 1022.21 1022.41 1022.55 1022.67 1022.77 1022.86 1022.97 1023.07 1023.18 1023.27 1023.34 1023.38 1023.41 1023.42 1023.45 1023.52 1023.64 1023.83 1024.07 1024.35 1024.63 1024.88 1025.06 1025.16 1025.16 1025.06 1024.88 1024.65 1024.39 1024.14 1023.90 1023.68 1023.49 1023.31 1023.13 1022.94
1021.08 1021.08 1021.17 1021.31 1021.50 1021.71 1021.91 1022.09 1022.24 1022.37 1022.49 1022.62 1022.76 1022.91 1023.07 1023.22 1023.35 1023.45 1023.50 1023.53 1023.53 1023.55 1023.60 1023.71 1023.89 1024.12 1024.40 1024.69 1024.96 1025.16 1025.29 1025.31 1025.24 1025.09 1024.88 1024.64 1024.39 1024.16 1023.94 1023.74 1023.55 1023.36 1023.16
1021.45 1021.43 1021.45 1021.53 1021.63 1021.76 1021.88 1022.00 1022.11 1022.23 1022.35 1022.50 1022.68 1022.88 1023.08 1023.27 1023.43 1023.54 1023.60 1023.62 1023.61 1023.61 1023.64 1023.73 1023.89 1024.11 1024.38 1024.67 1024.94 1025.17 1025.31 1025.37 1025.33 1025.22 1025.05 1024.84 1024.63 1024.41 1024.21 1024.01 1023.82 1023.62 1023.41
1021.78 1021.76 1021.75 1021.77 1021.81 1021.86 1021.93 1021.99 1022.07 1022.17 1022.31 1022.47 1022.67 1022.89 1023.12 1023.33 1023.50 1023.61 1023.67 1023.68 1023.65 1023.64 1023.65 1023.72 1023.85 1024.06 1024.31 1024.59 1024.86 1025.09 1025.25 1025.33 1025.33 1025.25 1025.13 1024.98 1024.81 1024.63 1024.46 1024.29 1024.10 1023.90 1023.68
1022.05 1022.04 1022.02 1022.02 1022.02 1022.03 1022.05 1022.09 1022.15 1022.24 1022.37 1022.55 1022.75 1022.98 1023.21 1023.42 1023.58 1023.68 1023.73 1023.72 1023.69 1023.65 1023.65 1023.70 1023.82 1024.01 1024.24 1024.49 1024.74 1024.96 1025.12 1025.21 1025.24 1025.21 1025.13 1025.03 1024.91 1024.79 1024.66 1024.52 1024.36 1024.17 1023.94
1022.23 1022.25 1022.25 1022.25 1022.24 1022.24 1022.25 1022.28 1022.33 1022.42 1022.55 1022.72 1022.93 1023.14 1023.36 1023.54 1023.68 1023.77 1023.79 1023.77 1023.73 1023.70 1023.69 1023.74 1023.84 1024.01 1024.21 1024.44 1024.65 1024.84 1024.98 1025.07 1025.10 1025.09 1025.06 1025.01 1024.94 1024.88 1024.80 1024.70 1024.57 1024.40 1024.18
1022.33 1022.37 1022.41 1022.43 1022.45 1022.46 1022.49 1022.53 1022.59 1022.68 1022.81 1022.98 1023.16 1023.36 1023.54 1023.70 1023.81 1023.87 1023.89 1023.87 1023.84 1023.81 1023.82 1023.87 1023.97 1024.11 1024.29 1024.47 1024.65 1024.79 1024.89 1024.95 1024.98 1024.97 1024.96 1024.94 1024.93 1024.91 1024.88 1024.83 1024.74 1024.59 1024.39
1022.35 1022.43 1022.50 1022.56 1022.62 1022.67 1022.72 1022.79 1022.87 1022.98 1023.11 1023.26 1023.43 1023.60 1023.75 1023.88 1023.97 1024.01 1024.03 1024.02 1024.01 1024.02 1024.05 1024.12 1024.23 1024.36 1024.51 1024.65 1024.77 1024.86 1024.91 1024.93 1024.92 1024.91 1024.90 1024.90 1024.91 1024.93 1024.93 1024.92 1024.86 1024.74 1024.55
1022.35 1022.45 1022.55 1022.64 1022.74 1022.83 1022.92 1023.02 1023.13 1023.25 1023.39 1023.54 1023.69 1023.83 1023.96 1024.06 1024.13 1024.18 1024.22 1024.24 1024.27 1024.32 1024.40 1024.50 1024.62 1024.75 1024.87 1024.97 1025.04 1025.07 1025.06 1025.03 1024.98 1024.94 1024.92 1024.92 1024.94 1024.97 1025.00 1025.00 1024.96 1024.86 1024.69
1022.36 1022.45 1022.56 1022.68 1022.80 1022.93 1023.05 1023.19 1023.32 1023.46 1023.60 1023.75 1023.89 1024.01 1024.13 1024.22 1024.30 1024.37 1024.43 1024.50 1024.58 1024.69 1024.81 1024.95 1025.09 1025.23 1025.33 1025.40 1025.42 1025.40 1025.34 1025.26 1025.17 1025.10 1025.06 1025.04 1025.05 1025.08 1025.10 1025.10 1025.06 1024.96 1024.80
1022.41 1022.48 1022.58 1022.69 1022.82 1022.96 1023.11 1023.26 1023.41 1023.57 1023.72 1023.86 1024.00 1024.13 1024.25 1024.35 1024.45 1024.54 1024.65 1024.76 1024.90 1025.06 1025.24 1025.42 1025.59 1025.73 1025.83 1025.88 1025.87 1025.82 1025.72 1025.61 1025.49 1025.39 1025.32 1025.29 1025.28 1025.28 1025.28 1025.25 1025.19 1025.07 1024.89
1022.51 1022.53 1022.60 1022.69 1022.80 1022.93 1023.08 1023.23 1023.39 1023.55 1023.71 1023.87 1024.02 1024.16 1024.29 1024.41 1024.53 1024.67 1024.82 1024.99 1025.18 1025.39 1025.61 1025.83 1026.03 1026.18 1026.29 1026.33 1026.32 1026.25 1026.14 1026.02 1025.89 1025.78 1025.69 1025.63 1025.59 1025.56 1025.52 1025.45 1025.34 1025.17 1024.95
1022.66 1022.62 1022.62 1022.67 1022.74 1022.84 1022.97 1023.11 1023.26 1023.42 1023.59 1023.76 1023.92 1024.08 1024.24 1024.39 1024.55 1024.73 1024.92 1025.13 1025.36 1025.62 1025.87 1026.12 1026.34 1026.52 1026.64 1026.69 1026.69 1026.63 1026.54 1026.43 1026.31 1026.20 1026.11 1026.04 1025.97 1025.90 1025.81 1025.68 1025.51 1025.28 1025.01
1022.82 1022.71 1022.65 1022.63 1022.65 1022.70 1022.79 1022.90 1023.04 1023.20 1023.37 1023.55 1023.73 1023.92 1024.10 1024.29 1024.49 1024.69 1024.92 1025.17 1025.43 1025.71 1025.99 1026.25 1026.49 1026.69 1026.83 1026.91 1026.93 1026.91 1026.86 1026.78 1026.69 1026.61 1026.53 1026.45 1026.37 1026.26 1026.12 1025.93 1025.68 1025.39 1025.05
1022.98 1022.80 1022.67 1022.57 1022.53 1022.52 1022.55 1022.63 1022.74 1022.89 1023.06 1023.26 1023.47 1023.68 1023.90 1024.12 1024.34 1024.57 1024.82 1025.09 1025.37 1025.65 1025.94 1026.22 1026.47 1026.68 1026.85 1026.97 1027.03 1027.06 1027.06 1027.03 1026.99 1026.95 1026.89 1026.82 1026.72 1026.58 1026.40 1026.15 1025.84 1025.48 1025.08
1023.10 1022.86 1022.66 1022.50 1022.38 1022.31 1022.29 1022.32 1022.41 1022.54 1022.72 1022.92 1023.15 1023.39 1023.63 1023.88 1024.13 1024.38 1024.64 1024.91 1025.19 1025.48 1025.77 1026.05 1026.31 1026.54 1026.73 1026.88 1027.00 1027.08 1027.13 1027.16 1027.18 1027.17 1027.15 1027.09 1026.99 1026.83 1026.62 1026.33 1025.97 1025.56 1025.11
1023.17 1022.88 1022.63 1022.40 1022.22 1022.09 1022.02 1022.01 1022.06 1022.18 1022.35 1022.56 1022.80 1023.06 1023.32 1023.59 1023.85 1024.12 1024.39 1024.66 1024.94 1025.23 1025.51 1025.79 1026.06 1026.30 1026.52 1026.71 1026.87 1027.00 1027.10 1027.18 1027.25 1027.28 1027.28 1027.24 1027.15 1026.98 1026.75 1026.44 1026.06 1025.62 1025.15
Thickness
5726 5725 5723 5722 5722 5722 5722 5722 5722 5721 5721 5721 5721 5720 5719 5718 5717 5715 5715 5715 5715 5715 5715 5716 5716 5716 5716 5716 5716 5716 5715 5716 5716 5716 5716 5716 5716 5716 5716 5716 5716 5717 5717
5723 5721 5720 5719 5719 5718 5718 5717 5717 5716 5715 5715 5715 5715 5714 5713 5712 5711 5711 5710 5710 5710 5710 5711 5711 5711 5712 5712 5711 5711 5711 5711 5711 5711 5711 5711 5711 5711 5711 5711 5712 5712 5712
5720 5718 5716 5715 5714 5714 5714 5713 5712 5711 5710 5710 5709 5708 5708 5708 5707 5707 5707 5706 5705 5705 5705 5706 5706 5706 5706 5706 5706 5706 5706 5705 5705 5705 5705 5705 5706 5706 5706 5706 5706 5707 5707
5716 5714 5712 5711 5711 5710 5710 5708 5707 5705 5704 5703 5702 5703 5703 5703 5703 5703 5703 5703 5702 5701 5700 5700 5701 5700 5701 5700 5700 5701 5700 5700 5700 5700 5699 5699 5700 5700 5700 5701 5701 5701 5702
5713 5711 5709 5708 5707 5706 5705 5704 5702 5701 5698 5698 5698 5698 5698 5698 5699 5699 5699 5699 5698 5697 5696 5696 5696 5695 5695 5695 5695 5695 5695 5695 5694 5694 5694 5694 5694 5694 5695 5695 5695 5695 5696
5710 5708 5706 5705 5703 5702 5700 5699 5698 5697 5695 5695 5695 5693 5693 5694 5694 5694 5694 5694 5694 5693 5692 5692 5691 5690 5690 5690 5690 5690 5690 5690 5689 5689 5689 5689 5689 5689 5689 5689 5689 5689 5690
5707 5705 5703 5701 5700 5698 5696 5696 5694 5692 5691 5692 5688 5686 5687 5690 5689 5689 5690 5690 5689 5689 5689 5689 5687 5686 5685 5685 5684 5684 5685 5685 5685 5685 5684 5684 5683 5683 5683 5683 5684 5684 5684
5704 5703 5701 5698 5697 5695 5693 5692 5690 5687 5687 5688 5684 5679 5676 5677 5681 5685 5685 5685 5685 5685 5685 5685 5684 5682 5681 5680 5679 5679 5679 5680 5680 5680 5680 5679 5678 5678 5678 5678 5678 5678 5678
5702 5701 5699 5697 5695 5693 5690 5689 5688 5686 5683 5684 5684 5679 5672 5667 5671 5677 5680 5681 5681 5681 5681 5681 5680 5678 5677 5675 5674 5674 5674 5674 5675 5675 5674 5674 5673 5673 5672 5672 5672 5672 5672
5700 5699 5698 5697 5694 5692 5690 5689 5687 5685 5683 5680 5681 5682 5679 5675 5669 5666 5671 5675 5677 5676 5676 5677 5675 5674 5672 5670 5669 5669 5669 5669 5669 5669 5669 5668 5668 5667 5667 5667 5667 5666 5666
5699 5698 5697 5695 5693 5691 5689 5688 5686 5684 5682 5679 5677 5677 5676 5675 5674 5667 5663 5667 5670 5672 5672 5672 5670 5669 5668 5666 5664 5664 5663 5663 5663 5663 5662 5662 5662 5662 5661 5661 5660 5660 5660
5697 5696 5695 5694 5692 5690 5688 5686 5685 5683 5681 5679 5678 5676 5674 5671 5669 5668 5664 5663 5663 5666 5668 5667 5666 5665 5664 5662 5660 5659 5659 5658 5657 5657 5657 5656 5656 5656 5655 5655 5654 5654 5653
5693 5693 5693 5692 5690 5689 5687 5686 5684 5682 5680 5678 5676 5674 5674 5672 5671 5669 5665 5662 5661 5662 5663 5663 5663 5661 5660 5658 5656 5655 5654 5653 5653 5652 5651 5651 5650 5650 5649 5649 5648 5647 5647
5693 5693 5691 5690 5689 5687 5686 5684 5682 5680 5679 5677 5676 5674 5672 5671 5671 5669 5665 5661 5656 5656 5657 5657 5659 5658 5657 5655 5653 5652 5650 5649 5648 5647 5646 5645 5644 5643 5642 5642 5641 5640 5640
5693 5692 5690 5688 5687 5685 5683 5682 5679 5678 5677 5675 5673 5672 5670 5669 5669 5668 5667 5664 5657 5651 5650 5653 5654 5655 5654 5652 5650 5648 5647 5645 5644 5642 5640 5639 5638 5637 5636 5635 5634 5633 5632
5692 5690 5689 5687 5685 5683 5681 5680 5677 5676 5674 5672 5671 5669 5667 5666 5666 5665 5665 5663 5661 5656 5650 5651 5652 5652 5651 5650 5647 5645 5643 5642 5640 5638 5636 5634 5632 5631 5629 5628 5627 5626 5625
5691 5689 5687 5685 5684 5682 5680 5677 5675 5674 5672 5670 5669 5667 5664 5664 5662 5661 5661 5659 5658 5655 5649 5648 5649 5648 5647 5645 5643 5641 5640 5638 5635 5633 5631 5629 5627 5625 5623 5622 5620 5619 5617
5690 5688 5686 5684 5682 5680 5678 5676 5673 5671 5669 5667 5666 5664 5662 5661 5658 5657 5656 5655 5653 5652 5649 5644 5643 5643 5642 5641 5639 5637 5636 5633 5631 5629 5626 5624 5621 5619 5617 5615 5613 5611 5610
5688 5687 5685 5682 5680 5678 5676 5674 5672 5670 5668 5666 5664 5662 5659 5657 5654 5653 5652 5651 5650 5649 5646 5642 5639 5638 5638 5637 5635 5633 5632 5629 5627 5624 5621 5618 5616 5613 5610 5608 5606 5604 5603
5686 5685 5683 5680 5678 5676 5674 5672 5670 5668 5666 5664 5662 5660 5657 5654 5652 5650 5649 5647 5646 5643 5641 5638 5635 5633 5632 5632 5629 5626 5624 5623 5621 5619 5616 5613 5610 5608 5605 5602 5600 5598 5596
5684 5683 5680 5678 5676 5673 5671 5668 5666 5665 5662 5660 5659 5657 5655 5653 5650 5648 5646 5642 5641 5637 5635 5633 5630 5628 5626 5624 5622 5621 5618 5617 5615 5614 5611 5608 5606 5603 5599 5596 5594 5591 5589
5680 5678 5676 5673 5671 5669 5667 5665 5663 5661 5659 5657 5655 5653 5651 5649 5647 5645 5643 5640 5638 5634 5631 5628 5625 5623 5621 5621 5619 5618 5614 5611 5607 5609 5605 5602 5601 5597 5594 5591 5588 5585 5583
5674 5672 5671 5669 5666 5663 5663 5661 5659 5657 5655 5654 5652 5649 5648 5646 5643 5640 5638 5637 5635 5633 5630 5626 5623 5621 5619 5618 5616 5613 5610 5607 5604 5604 5600 5595 5594 5591 5589 5586 5583 5580 5577
5668 5667 5666 5664 5661 5659 5658 5657 5655 5653 5651 5650 5649 5646 5643 5641 5639 5636 5634 5631 5629 5628 5627 5624 5621 5619 5617 5615 5613 5609 5606 5603 5601 5598 5596 5589 5587 5585 5584 5580 5577 5574 5571
5663 5662 5661 5659 5657 5654 5654 5652 5650 5647 5646 5645 5644 5642 5640 5636 5635 5633 5630 5627 5624 5623 5623 5621 5618 5615 5613 5611 5608 5604 5599 5595 5591 5590 5589 5584 5581 5578 5576 5574 5571 5567 5564
5659 5658 5657 5655 5653 5651 5649 5647 5645 5643 5640 5639 5638 5636 5634 5632 5630 5627 5624 5622 5618 5617 5616 5614 5612 5610 5607 5605 5602 5598 5594 5588 5584 5581 5582 5577 5573 5570 5567 5567 5564 5560 5556